Pago Pago, AS

8:31 PM SST on September 03, 2015 (GMT -1100)
Kona International At Keahole | | Change Station
CLOSE
Current Station
Airport
Location: Keahole Point,
Elevation: 43 ft
Nearby Weather Stations

Elev 43 ft 19.74 °N, 156.05 °W | Updated 38 minutes ago

Mostly Cloudy
Mostly Cloudy
82 °F
Feels Like 89 °F
N
9
Wind Variable Wind from SSE

Today
High -- | Low -- °F
--% Chance of Precip.
Yesterday
High -- | Low -- °F
Precip. -- in
6:26 AM 6:18 PM
Waning Gibbous, 62% visible
Pressure 29.86 in
Visibility 10.0 miles
Clouds Mostly Cloudy 1200 ft
Mostly Cloudy 1800 ft
Heat Index 89 °F
Dew Point 76 °F
Humidity 82%
Rainfall 0.00 in
Snow Depth Not available.
UV 0 out of 12
Pollen Not available.
Air Quality Not available.
Flu Activity Not available.
METAR PHKO 040653Z 16008KT 10SM BKN012 BKN018 28/24 A2985 RMK AO2 SLP109 T02780244
Pressure 29.86 in
Visibility 10.0 miles
Clouds Mostly Cloudy 1200 ft
Mostly Cloudy 1800 ft
Heat Index 89 °F
Dew Point 76 °F
Humidity 82%
Rainfall 0.00 in
Snow Depth Not available.
UV 0 out of 12
Pollen Not available.
Air Quality Not available.
Flu Activity Not available.
METAR PHKO 040653Z 16008KT 10SM BKN012 BKN018 28/24 A2985 RMK AO2 SLP109 T02780244

10-Day Weather Forecast

×

Almanac

Astronomy

Sep. 03, 2015 Rise Set
Actual Time
Civil Twilight
Nautical Twilight
Astronomical Twilight
Moon
Length of Visible Light
Length of Day
Tomorrow will be .
, % of the Moon is Illuminated

Today's Extremes

State Highs State Lows

Community

WunderPhotos

Upload Photos

1,852,132 photos uploaded!

WunderBlogs® & News

Nearby

Air Quality

  Air Quality AQ Index Pollutant
Not available.

Snow Depth

Station Depth Elevation

Earthquake Activity

City Distance Mag. Time & Date
Minimum magnitude displayed is 2.5.

Coastal Water Temperatures

Place Temperature

Stations

Nearby Weather Stations

Station Location Temp. Windchill Dew Point Humidity Wind Precip. Elev Updated Type